Miscellaneous Local Product
Issued by NWS North Platte, NE

Home | Current Version | Previous Version | Graphics & Text | Print | Product List | Glossary On
Versions: 1 2 3 4 5 6 7 8 9 10 11 12 13 14 15 16 17 18 19 20 21 22 23 24 25 26 27 28 29 30 31 32 33 34 35 36 37 38 39 40 41 42 43 44 45 46 47 48 49 50
000
AXUS43 KLBF 231210
MISLBF


WESTERN AND NORTH CENTRAL NEBRASKA HOURLY WEATHER ROUNDUP
NATIONAL WEATHER SERVICE NORTH PLATTE NE
700 AM CDT SAT MAY 23 2015

***STATIONS NOT REPORTING VARIABLES SUCH AS SKY/WEATHER OR
PRESSURE ARE PROVIDED BY THE NEBRASKA DEPARTMENT OF
ROADS...RAWS...AND APRS NETWORKS...AND ARE NOT UNDER
NATIONAL WEATHER SERVICE QUALITY CONTROL***

...OBSERVATIONS IN AND NEAR THE EASTERN PANHANDLE OF NEBRASKA...

CITY           SKY/WX    TMP DP  RH WIND       PRES   REMARKS
PINE RIDGE     CLOUDY    48  44  86 E7        30.06S
CHADRON        CLOUDY    48  45  89 SE5       30.05R
ALLIANCE       CLOUDY    47  47 100 E5        30.04R FOG
SIDNEY         FOG       49  48  97 NE3       30.04S VSB 1/4
WHITECLAY        N/A     45  44  95 SE7         N/A
BIG SPRINGS      N/A     51  50  98 E3          N/A
$$

...OBSERVATIONS IN NORTH CENTRAL NEBRASKA...

CITY           SKY/WX    TMP DP  RH WIND       PRES   REMARKS
VALENTINE      CLOUDY    49  48  97 E7        30.09S FOG
THEDFORD       CLOUDY    53  53  99 SE6       30.08S FOG
AINSWORTH      CLOUDY    52  52 100 SE6       30.10R FOG
O`NEILL        CLOUDY    53  51  90 SE7       30.14S
ORD            CLOUDY    52  50  93 SE7       30.11S
BROKEN BOW     FOG       53  52  96 SE10      30.09R VSB 3/4
VALENTINE NWR    N/A     49  49  99 SE6         N/A
SPRINGVIEW       N/A     50  49  95 E3          N/A
ROSE             N/A     53  53  99 E5          N/A
NEWPORT          N/A     51  51  99 E8          N/A
SARGENT          N/A     52  51  98 CALM        N/A
COMSTOCK         N/A     54  54  99 S12         N/A
EWING            N/A     52  50  92 E3          N/A
$$

...OBSERVATIONS IN SOUTHWEST NEBRASKA AND FAR NORTHEAST COLORADO...

CITY           SKY/WX    TMP DP  RH WIND       PRES   REMARKS
WRAY           FOG      N/A N/A N/A E10       30.00F VSB 1
IMPERIAL       CLOUDY    52  50  93 SE13      30.03F
OGALLALA       CLOUDY    52  51  98 SE6       30.04F
NORTH PLATTE   CLOUDY    53  51  93 SE12      30.06R
MCCOOK         CLOUDY    53  52  96 SE14      30.03F
LEXINGTON      CLOUDY    55  54  97 S15       30.08F
PAXTON           N/A     52  51  97 SE9         N/A
GOTHENBURG       N/A     53  51  93 SE6         N/A
CALLAWAY         N/A     52  52  99 S16         N/A
$$

...NORTH PLATTE AREA...

CITY           SKY/WX    TMP DP  RH WIND       PRES   REMARKS
AIRPORT        CLOUDY    53  51  93 SE12      30.06R
DOWNTOWN         N/A     53  51  94 SE3         N/A
$$

...SOME WEATHER OBSERVATIONS FROM AROUND THE REGION...

CITY           SKY/WX    TMP DP  RH WIND       PRES   REMARKS
DENVER         FOG       47  46  97 E3        30.02S VSB 1/4
LARAMIE        PTCLDY    38  37  97 SE18      30.02R WCI  28
CHEYENNE       FOG       42  42 100 S7        30.02S VSB 1/4
SCOTTSBLUFF    FOG       46  46 100 E8        30.03S VSB 3/4
RAPID CITY     CLOUDY    47  44  90 SE10      30.06R
PIERRE         CLOUDY    51  46  83 E9        30.12S
WINNER         LGT RAIN  51  48  89 E12       30.11S FOG
SIOUX FALLS    LGT RAIN  54  48  80 S3        30.21R
OMAHA          CLOUDY    59  51  75 SE6       30.21R
GRAND ISLAND   CLOUDY    53  50  89 SE12      30.14F
KANSAS CITY    LGT RAIN  57  54  89 S9G17     30.23R
WICHITA        CLOUDY    56  55  97 E8        30.14F FOG
HAYS           CLOUDY    54  46  76 SE9       30.09F
LIBERAL        CLOUDY    57  52  82 E15       30.04F THUNDER
GOODLAND       CLOUDY    53  53 100 SE15      30.02F FOG
$$



USA.gov is the U.S. government's official web portal to all federal, state and local government web resources and services.